Kosmos-943

operational
NORAD ID: 10289 Int'l Des: 1977-079 Owner: GUKOSR Country: SU
LEOCIRCULAR

Kosmos-943について

説明を読み込み中...

リアルタイム位置

3D地球を読み込み中...

次回通過

高度履歴

Altitude vs Time

uPlot chart will show altitude changes over time

軌道要素

1 10289U 77079E 26063.56106779 -.00000018 00000-0 -13124-4 0 9994
2 10289 74.0282 9.9948 0007402 358.0691 116.8505 12.52096766192685
Epoch: Mar 4, 2026 • Age: 21 hours

現在のステータス

高度 1461.3 km
速度 7.14 km/s
衛星直下点 54.03°N, 82.35°W
打ち上げ日 Aug 24, 1977
運用期間 48.5 years
タイプ other

技術仕様

分類 Payload
質量 60.00 kg
乾燥質量 60.00 kg
総質量 60.00 kg
長さ 0.80 m
直径 0.80 m
スパン 0.80 m
形状 Poly
製造者 NPOPM
バスタイプ Strela-1 11F625
フェーズステータス In Orbit
所有者/国 GUKOSR/SU

大規模コンステレーション

Loading constellations...